Jackson, MS

2:33 PM CDT on July 26, 2017 (GMT -0500)
Jackson-Evers International

Weather History for KJAN - January, 2013

Change the Weather History Date:

Monday, January 14, 2013

  Actual Average Record
Temperature  
Mean Temperature 38 °F 45 °F  
Max Temperature 43 °F 56 °F 80 °F (1937)
Min Temperature 33 °F 35 °F 15 °F (1982)
Degree Days  
Heating Degree Days 27 20  
Month to date heating degree days 210 280  
Since 1 July heating degree days 1071 1230  
Cooling Degree Days 0 0  
Month to date cooling degree days 8 0  
Year to date cooling degree days 8 0  
Moisture  
Dew Point 34 °F    
Average Humidity 89    
Maximum Humidity 96    
Minimum Humidity 82    
Precipitation  
Precipitation 1.48 in 0.16 in 1.48 in (2013)
Month to date precipitation 5.44 2.09  
Year to date precipitation 5.44 2.09  
Sea Level Pressure  
Sea Level Pressure 30.19 in    
Wind  
Wind Speed 11 mph (North)    
Max Wind Speed 21 mph    
Max Gust Speed 26 mph    
Visibility 6 miles    
Events Rain , Thunderstorm    
T = Trace of Precipitation, MM = Missing Value Source: NWS Daily Summary

Daily Weather History Graph

Daily Weather History Graph

Search for Another Location

Airport or City:

Trip Planner

Search our weather history database for the weather conditions in past years. The results will help you decide how hot, cold, wet, or windy it might be!

Date:

Astronomy

Jan. 14, 2013 Rise Set
Actual Time 7:01 AM CST 5:17 PM CST
Civil Twilight 6:35 AM CST 5:43 PM CST
Nautical Twilight 6:05 AM CST 6:14 PM CST
Astronomical Twilight 5:35 AM CST 6:43 PM CST
Moon 8:49 AM CST (1/14) 8:47 PM CST (1/14)
Length of Visible Light 11h 08m
Length of Day
10h 15m
Waxing Crescent, 11% of the Moon is Illuminated
Jan 14
Waxing Crescent
Jan 18
First Quarter
Jan 26
Full
Feb 3
Last Quarter
Feb 10
New

Hourly Weather History & Observations

Time (CST) Temp. Windchill Dew Point Humidity Pressure Visibility Wind Dir Wind Speed Gust Speed Precip Events Conditions
12:54 AM 42.1 °F 36.1 °F 39.0 °F 89% 30.17 in 10.0 mi North 10.4 mph - N/A   Overcast
1:14 AM 42.8 °F 37.5 °F 37.4 °F 81% 30.18 in 10.0 mi North 9.2 mph - N/A   Overcast
1:54 AM 43.0 °F 36.4 °F 37.9 °F 82% 30.17 in 10.0 mi North 12.7 mph - N/A   Overcast
2:54 AM 42.1 °F 35.7 °F 37.9 °F 85% 30.17 in 10.0 mi North 11.5 mph 21.9 mph 0.00 in   Overcast
4:54 AM 41.0 °F 34.7 °F 37.0 °F 86% 30.14 in 10.0 mi NNE 10.4 mph - 0.00 in   Overcast
5:24 AM 41.0 °F 34.7 °F 37.4 °F 87% 30.14 in 10.0 mi NNE 10.4 mph - 0.00 in Rain , Thunderstorm Light Thunderstorms and Rain
5:54 AM 39.9 °F 32.5 °F 37.0 °F 89% 30.13 in 4.0 mi North 12.7 mph - 0.12 in Rain Rain
6:47 AM 39.2 °F 32.5 °F 37.4 °F 93% 30.16 in 10.0 mi North 10.4 mph - 0.03 in Rain Light Rain
6:54 AM 41.0 °F 36.4 °F 37.9 °F 89% 30.17 in 10.0 mi North 6.9 mph - 0.03 in Rain Light Rain
7:54 AM 39.9 °F 32.9 °F 37.0 °F 89% 30.16 in 6.0 mi NNE 11.5 mph - 0.01 in Rain Light Rain
8:26 AM 39.2 °F 33.0 °F 37.4 °F 93% 30.15 in 2.0 mi NNE 9.2 mph - 0.02 in Rain Rain
8:39 AM 39.2 °F 33.0 °F 37.4 °F 93% 30.15 in 5.0 mi NE 9.2 mph - 0.04 in Rain Light Rain
8:54 AM 39.9 °F 33.4 °F 37.0 °F 89% 30.15 in 9.0 mi NE 10.4 mph - 0.04 in   Overcast
9:06 AM 39.2 °F 35.0 °F 37.4 °F 93% 30.18 in 2.5 mi North 5.8 mph - 0.01 in Rain Rain
9:11 AM 39.2 °F 33.6 °F 37.4 °F 93% 30.20 in 1.5 mi North 8.1 mph - 0.07 in Rain , Thunderstorm Heavy Thunderstorms and Rain
9:42 AM 39.2 °F 34.2 °F 37.4 °F 93% 30.19 in 1.5 mi North 6.9 mph - 0.25 in Rain Heavy Rain
9:50 AM 39.2 °F 34.2 °F 37.4 °F 93% 30.18 in 3.0 mi North 6.9 mph - 0.27 in Rain Light Rain
9:54 AM 39.9 °F 35.8 °F 37.9 °F 93% 30.18 in 3.0 mi North 5.8 mph - 0.28 in Rain Light Rain
10:13 AM 39.2 °F 33.0 °F 37.4 °F 93% 30.18 in 5.0 mi North 9.2 mph - 0.01 in Rain Light Rain
10:54 AM 37.9 °F 30.5 °F 36.0 °F 93% 30.19 in 3.0 mi NNW 11.5 mph - 0.09 in Rain Rain
11:00 AM 37.4 °F 29.8 °F 35.6 °F 93% 30.18 in 1.8 mi NNW 11.5 mph - 0.00 in Rain Rain
11:13 AM 37.4 °F 28.9 °F 35.6 °F 93% 30.20 in 3.0 mi NNW 13.8 mph - 0.08 in Rain Rain
11:54 AM 37.0 °F 27.4 °F 34.0 °F 89% 30.19 in 7.0 mi North 17.3 mph 24.2 mph 0.10 in   Overcast
12:51 PM 33.8 °F 23.2 °F 32.0 °F 93% 30.17 in 4.0 mi North 17.3 mph - 0.02 in Rain Light Rain
12:54 PM 34.0 °F 23.4 °F 32.0 °F 92% 30.18 in 3.0 mi North 17.3 mph - 0.02 in Rain Heavy Rain
1:01 PM 33.8 °F 24.3 °F 32.0 °F 93% 30.19 in 3.0 mi NNW 13.8 mph 23.0 mph 0.03 in Rain Rain
1:18 PM 33.8 °F 23.9 °F 30.2 °F 87% 30.19 in 10.0 mi North 15.0 mph 25.3 mph 0.03 in   Overcast
1:35 PM 33.8 °F 23.5 °F 30.2 °F 87% 30.21 in 10.0 mi NNW 16.1 mph 20.7 mph 0.04 in   Light Ice Pellets
1:41 PM 33.8 °F 23.2 °F 30.2 °F 87% 30.22 in 10.0 mi NNW 17.3 mph 23.0 mph 0.04 in   Overcast
1:44 PM 33.8 °F 24.3 °F 30.2 °F 87% 30.20 in 10.0 mi North 13.8 mph 23.0 mph 0.04 in   Overcast
1:47 PM 33.8 °F 23.9 °F 30.2 °F 87% 30.20 in 10.0 mi North 15.0 mph 23.0 mph 0.04 in   Overcast
1:50 PM 33.8 °F 24.3 °F 30.2 °F 87% 30.20 in 6.0 mi North 13.8 mph 23.0 mph 0.04 in Rain Light Ice Pellets
1:54 PM 33.1 °F 22.6 °F 30.9 °F 92% 30.21 in 3.0 mi North 16.1 mph 20.7 mph 0.04 in   Light Ice Pellets
1:58 PM 33.8 °F 24.3 °F 30.2 °F 87% 30.20 in 2.5 mi North 13.8 mph 20.7 mph 0.02 in Rain Rain
2:02 PM 33.8 °F 23.9 °F 30.2 °F 87% 30.21 in 4.0 mi North 15.0 mph 20.7 mph 0.03 in Rain Light Rain
2:17 PM 33.8 °F 26.4 °F 30.2 °F 87% 30.21 in 2.0 mi North 9.2 mph - 0.09 in Rain Rain
2:20 PM 33.8 °F 25.3 °F 30.2 °F 87% 30.21 in 3.0 mi North 11.5 mph - 0.10 in Rain Rain
2:28 PM 33.8 °F 24.3 °F 30.2 °F 87% 30.21 in 3.0 mi North 13.8 mph - 0.12 in Rain Rain
2:54 PM 34.0 °F 24.2 °F 30.9 °F 89% 30.22 in 4.0 mi North 15.0 mph 21.9 mph 0.19 in Rain Rain
3:02 PM 33.8 °F 25.3 °F 32.0 °F 93% 30.22 in 1.8 mi North 11.5 mph 21.9 mph 0.03 in Rain Heavy Rain
3:10 PM 33.8 °F 26.4 °F 32.0 °F 93% 30.22 in 1.2 mi North 9.2 mph - 0.10 in Rain Heavy Rain
3:16 PM 33.8 °F 25.8 °F 32.0 °F 93% 30.21 in 1.0 mi North 10.4 mph - 0.22 in Rain Heavy Rain
3:27 PM 33.8 °F 27.7 °F 32.0 °F 93% 30.23 in 1.5 mi NNE 6.9 mph - 0.34 in Rain Heavy Rain
3:37 PM 33.8 °F 25.3 °F 32.0 °F 93% 30.22 in 1.5 mi NNE 11.5 mph - 0.41 in Rain Heavy Rain
3:41 PM 33.8 °F 25.8 °F 32.0 °F 93% 30.22 in 2.0 mi NNE 10.4 mph - 0.43 in Rain Rain
3:46 PM 33.8 °F 26.4 °F 32.0 °F 93% 30.23 in 4.0 mi NNE 9.2 mph - 0.43 in Rain Light Rain
3:54 PM 34.0 °F 25.5 °F 32.0 °F 92% 30.23 in 5.0 mi North 11.5 mph - 0.44 in Rain Light Rain
4:24 PM 35.6 °F 27.5 °F 32.0 °F 87% 30.22 in 2.5 mi North 11.5 mph 17.3 mph 0.06 in Rain Rain
4:33 PM 35.6 °F 28.6 °F 33.8 °F 93% 30.23 in 4.0 mi NNE 9.2 mph - 0.08 in Rain Light Rain
4:54 PM 35.1 °F 29.3 °F 33.1 °F 92% 30.23 in 4.0 mi NNE 6.9 mph - 0.12 in Rain Light Rain
5:45 PM 35.6 °F 26.6 °F 32.0 °F 87% 30.21 in 10.0 mi NNE 13.8 mph - 0.00 in   Overcast
5:54 PM 35.1 °F 29.3 °F 33.1 °F 92% 30.22 in 10.0 mi NNE 6.9 mph - 0.00 in   Overcast
6:11 PM 35.6 °F 29.9 °F 33.8 °F 93% 30.23 in 10.0 mi NE 6.9 mph - N/A   Overcast
6:35 PM 35.6 °F 29.9 °F 33.8 °F 93% 30.22 in 10.0 mi ENE 6.9 mph - N/A   Overcast
6:52 PM 35.6 °F 29.9 °F 33.8 °F 93% 30.20 in 10.0 mi NE 6.9 mph - N/A   Overcast
6:54 PM 35.1 °F 30.1 °F 33.1 °F 92% 30.20 in 10.0 mi Variable 5.8 mph - N/A   Overcast
7:17 PM 35.6 °F 29.2 °F 33.8 °F 93% 30.19 in 10.0 mi NNE 8.1 mph - N/A   Overcast
7:54 PM 37.0 °F 31.0 °F 34.0 °F 89% 30.20 in 10.0 mi NNE 8.1 mph - N/A   Overcast
8:34 PM 37.4 °F 32.8 °F 33.8 °F 87% 30.18 in 10.0 mi NNE 5.8 mph - N/A   Overcast
8:51 PM 37.4 °F 31.4 °F 35.6 °F 93% 30.17 in 10.0 mi NNE 8.1 mph - N/A   Overcast
8:54 PM 37.0 °F 31.6 °F 35.1 °F 93% 30.17 in 10.0 mi NNE 6.9 mph - N/A   Overcast
9:52 PM 37.4 °F 32.8 °F 35.6 °F 93% 30.17 in 10.0 mi NNW 5.8 mph - N/A   Overcast
9:54 PM 37.0 °F 31.0 °F 35.1 °F 93% 30.18 in 10.0 mi North 8.1 mph - N/A   Overcast
10:54 PM 37.0 °F 31.0 °F 35.1 °F 93% 30.16 in 10.0 mi North 8.1 mph - N/A   Overcast
11:54 PM 37.0 °F 29.8 °F 35.1 °F 93% 30.15 in 10.0 mi North 10.4 mph - N/A   Overcast